Voltar ao catálogo

SL-16 DEB

AtivoLEO
NORAD 22289·DEBRIS·🇷🇺 Russia

Lançado Dec 25, 1992 de Baikonur Cosmodrome

Loading…

Próximas Passagens (próximas 24 horas)

TLE

AtualizadoSource: Space-Track

Época: Sep 14, 2026, 15:07 UTC

1 22289U 92093D   26257.62994287  .00000105  00000-0  55977-4 0  9998
2 22289  70.8306 125.3071 0061215 215.4292 174.9931 14.33084587760682

Acompanhe SL-16 DEB em tempo real com AllMySat

Download on the App Store